Wind_Speed
47 47 47 47 48 47 47 47 48 47 46 45 44 42 40 39 37 35 33 32 30 28 27 26 25 24 22 21 20 21 22 22 22 22 22 22 21 20 19 19 19 18 18 18 18 18 18 19 19 20 21 21 21 20 19 17 16 14 12 10 9 9 8 8 10 8 6 6 6 5 6 7 7 7 9 9 8 9 10 9 9 9 9 9 8
47 47 47 47 48 48 47 47 47 47 47 47 46 44 43 41 39 37 36 34 32 31 30 28 27 26 25 23 22 22 23 24 24 24 24 23 22 22 21 21 21 20 19 19 19 19 19 19 19 19 20 20 20 19 18 16 15 13 12 12 11 11 10 10 11 10 7 6 6 6 5 6 7 7 9 10 10 11 11 9 8 9 9 9 8
47 46 46 46 46 47 48 47 47 47 47 47 46 46 45 43 41 40 38 36 35 33 32 31 30 29 28 26 24 24 24 25 25 26 25 24 23 23 23 23 22 22 21 20 20 20 20 20 20 19 19 19 18 17 15 14 14 15 15 15 14 13 12 12 12 13 12 9 7 6 6 7 8 9 11 12 12 13 13 12 11 11 11 11 11
48 47 46 45 44 45 47 48 48 48 48 47 46 45 44 44 43 42 40 39 37 36 34 33 32 31 30 28 27 26 25 25 26 27 27 26 25 24 24 24 24 23 22 21 21 21 21 21 20 20 20 20 19 17 16 16 16 17 17 17 17 16 14 14 14 15 16 15 11 8 9 9 10 12 12 13 13 14 14 15 14 14 13 13 13
48 48 47 46 45 45 46 47 49 49 49 48 47 45 44 43 43 42 41 40 39 38 36 35 34 33 32 30 29 28 27 26 26 27 28 28 26 25 24 24 24 24 23 22 22 21 21 21 20 20 20 21 20 19 19 18 18 18 19 18 18 17 15 15 16 17 19 20 17 13 12 13 13 12 12 14 15 15 15 16 15 16 16 15 15
48 48 47 47 46 45 45 46 48 49 49 49 48 47 45 43 43 42 41 41 39 38 38 37 36 35 33 32 31 29 28 28 27 26 28 28 28 27 25 25 24 24 24 23 23 22 22 22 21 20 21 21 21 20 19 19 19 19 19 18 18 18 18 18 18 19 20 20 19 16 13 13 14 12 12 15 17 18 18 18 16 16 17 18 18
49 48 48 47 47 46 45 45 45 46 48 48 48 48 47 46 44 43 41 41 40 39 38 38 37 36 34 33 32 31 30 29 29 27 27 28 28 28 27 26 25 24 24 23 23 23 23 23 22 22 22 22 21 20 20 19 19 19 19 19 18 19 19 19 19 20 20 19 19 17 15 14 14 14 14 16 17 18 19 21 20 18 18 20 21
48 48 48 47 47 47 45 44 44 44 45 46 47 48 48 47 46 45 43 42 41 40 39 38 37 37 35 35 33 32 31 31 31 29 28 28 29 28 27 27 27 26 25 24 23 23 23 23 23 23 23 23 22 21 21 20 21 21 20 19 19 20 20 20 19 19 19 19 18 17 16 15 15 15 16 17 19 19 19 21 23 22 21 22 23
47 48 48 48 47 46 45 44 43 43 43 45 46 48 48 48 47 46 46 45 43 42 41 40 39 38 37 36 35 34 34 33 32 31 30 29 29 29 28 27 27 27 26 26 25 24 23 23 23 24 23 23 23 22 22 22 21 21 20 19 20 20 20 20 19 19 18 18 18 16 16 17 16 16 18 19 20 21 21 22 23 23 23 23 23
46 47 48 48 46 44 44 44 43 43 44 45 45 47 48 48 48 48 47 46 45 44 42 41 41 39 38 37 36 35 35 35 33 32 31 30 30 29 29 28 27 26 26 27 26 25 24 23 23 23 23 23 23 23 22 22 22 22 21 20 20 20 20 20 19 18 18 18 18 17 18 19 18 18 20 20 21 22 21 22 23 23 23 23 21
45 47 47 46 45 44 43 43 43 43 44 45 45 46 47 48 48 48 48 47 46 45 44 43 42 40 39 38 37 37 36 35 33 32 31 30 30 30 29 28 27 27 26 27 27 26 25 24 23 22 23 23 23 23 23 23 23 22 21 19 18 18 18 19 18 18 18 19 19 19 20 21 20 21 22 22 21 21 20 21 22 23 23 23 21
46 46 46 45 44 44 43 41 41 42 43 44 44 45 46 47 48 48 48 48 47 46 44 44 42 41 39 39 38 38 37 35 33 32 31 31 30 30 30 29 28 28 27 27 27 26 25 24 24 23 23 23 23 23 23 23 24 23 20 18 17 17 18 18 19 19 19 20 21 21 22 22 23 23 22 22 20 19 19 19 21 22 22 21 21
47 46 45 45 44 43 42 41 40 41 41 41 42 43 45 47 48 48 48 48 47 46 46 44 42 41 40 40 39 39 38 36 34 33 32 31 31 31 30 30 29 28 28 27 27 26 26 25 24 24 23 22 22 22 23 23 24 23 22 20 20 21 21 21 21 21 21 22 23 23 23 23 25 24 22 20 19 19 18 18 18 19 19 19 18
46 46 45 45 45 44 43 42 41 41 40 39 39 41 44 46 47 48 48 48 47 47 46 45 43 42 40 40 39 39 38 37 35 33 33 32 32 32 32 32 31 30 29 29 28 27 26 25 25 24 23 23 23 23 23 22 23 24 24 24 24 24 24 24 23 23 23 24 24 25 23 23 25 24 20 17 17 17 17 17 17 17 17 17 16
47 47 46 46 46 45 45 43 42 41 40 39 38 40 42 44 46 47 47 47 48 48 47 46 45 43 41 39 40 40 39 37 36 34 33 32 32 33 33 34 34 33 31 30 30 29 28 27 27 26 25 24 24 23 23 23 23 24 24 25 26 26 26 25 24 23 24 24 25 25 24 23 24 24 19 15 15 16 16 17 18 18 18 17 16
44 44 45 45 44 45 45 44 43 42 40 39 38 39 41 43 45 46 47 47 47 47 47 47 46 44 42 40 40 40 39 37 36 34 32 31 32 33 34 34 35 35 33 32 31 30 30 29 29 28 27 26 25 24 24 24 25 25 26 26 26 26 26 25 24 24 24 25 25 25 25 24 24 24 20 18 18 18 18 19 20 19 19 19 18
42 42 43 43 43 44 45 45 44 42 40 39 39 39 40 42 44 45 46 47 47 47 47 47 46 45 43 41 41 40 39 37 36 34 32 31 31 31 32 34 35 35 34 33 32 31 31 31 30 29 29 28 26 25 25 25 26 27 28 28 28 28 26 24 25 25 26 26 26 26 25 25 24 23 21 20 20 19 20 22 22 20 20 21 20
35 38 41 42 42 42 44 45 45 43 42 41 40 40 40 41 43 44 46 47 47 47 47 47 47 46 45 43 42 41 39 38 36 34 33 32 31 30 30 31 32 33 33 33 33 32 31 31 31 31 30 29 27 26 26 26 26 27 28 29 30 31 28 25 26 27 27 27 26 25 24 24 24 23 23 23 21 20 21 23 22 22 23 23 21
19 25 32 38 40 40 41 44 45 44 43 42 42 41 40 40 41 43 45 47 47 47 47 47 47 47 46 45 43 42 40 39 37 36 34 33 32 31 30 30 31 30 30 31 33 33 32 32 32 32 31 30 28 27 26 27 27 27 27 28 31 31 27 25 26 26 25 25 24 23 24 24 25 25 26 25 22 20 21 22 22 23 24 23 21
13 14 19 27 35 40 41 43 46 46 44 43 42 42 41 41 41 42 44 46 46 47 47 47 47 47 46 46 45 43 42 40 39 37 36 35 35 33 32 32 31 30 29 29 30 31 31 30 31 31 30 29 28 27 27 27 28 27 27 28 30 28 24 23 24 24 24 25 25 25 26 26 26 28 27 25 22 20 20 20 21 23 24 23 20
17 14 14 18 26 36 42 45 47 47 46 44 43 43 42 42 42 43 43 44 46 47 47 47 47 47 47 47 46 45 44 42 40 38 37 37 37 35 34 34 33 32 31 30 30 30 29 28 27 27 27 27 27 27 27 28 28 29 29 30 29 26 25 26 26 26 27 27 27 27 28 28 28 28 27 25 23 22 21 20 19 21 23 22 20
22 19 18 18 20 28 38 46 48 48 46 45 44 44 44 43 43 43 43 44 45 46 47 47 47 47 47 47 47 47 45 44 42 40 38 38 38 38 37 36 35 34 34 33 33 31 29 27 25 24 24 25 25 26 27 28 30 31 31 31 30 29 29 30 30 30 31 30 30 30 30 29 28 28 27 26 25 25 24 21 19 19 20 20 19
24 23 23 23 21 23 30 40 46 48 47 46 46 45 45 44 44 44 44 44 44 46 47 47 47 46 47 47 48 47 46 45 44 42 40 39 39 40 40 39 38 37 37 36 35 32 30 28 26 24 24 24 25 26 27 29 31 32 32 32 33 33 33 34 34 34 34 33 32 31 30 28 27 26 26 25 26 26 26 25 22 19 19 19 20
25 26 27 28 26 25 26 33 41 47 48 47 46 46 46 45 45 44 44 44 45 46 47 47 47 47 47 47 48 48 47 46 45 44 42 41 40 41 41 41 40 39 38 38 37 34 32 29 27 26 25 26 26 26 27 28 30 32 32 34 35 35 36 36 35 34 33 32 31 30 27 25 24 23 22 22 22 24 26 27 25 22 21 20 21
25 26 27 29 30 29 27 30 37 44 47 47 47 46 46 46 45 45 45 44 45 46 47 47 48 48 47 48 48 48 47 46 46 45 43 42 41 41 41 41 41 41 40 40 38 36 33 31 30 29 28 27 27 27 27 27 28 29 30 31 32 32 32 31 29 29 29 28 27 26 23 20 20 20 19 20 21 21 23 24 26 26 25 25 25
24 25 25 27 30 30 29 30 35 42 46 47 47 46 46 46 46 45 45 45 46 46 47 48 49 49 49 49 49 48 47 47 46 46 44 42 41 40 40 41 41 41 42 41 39 38 36 34 33 32 30 29 29 29 28 28 28 28 28 28 28 27 26 25 25 26 26 24 23 22 20 18 19 20 20 21 21 19 19 20 22 23 25 25 24
24 24 24 24 27 28 28 30 35 41 45 47 46 46 46 47 47 46 46 46 46 47 47 48 49 51 52 51 49 47 47 47 47 47 46 43 41 38 38 38 38 39 40 40 39 38 37 36 34 33 32 31 31 31 30 30 29 28 26 25 25 24 22 22 23 23 23 22 22 21 20 20 21 22 22 22 20 18 17 17 17 18 19 19 20
23 23 23 23 24 25 26 30 35 41 44 46 46 46 46 47 47 47 48 47 46 47 48 49 50 51 51 50 48 46 47 49 50 49 47 44 40 37 35 34 34 35 36 36 35 35 35 34 34 34 34 33 33 33 32 32 31 29 26 24 23 23 22 23 24 24 23 23 23 22 21 21 22 23 22 21 19 16 15 15 15 15 15 16 17
23 22 22 23 23 24 25 31 37 41 44 46 46 46 46 46 46 47 47 46 45 45 47 49 50 50 49 50 50 49 50 51 51 48 46 42 38 36 34 31 31 32 32 31 31 32 34 34 35 35 35 35 34 34 34 33 31 30 28 26 25 25 25 25 25 25 25 24 24 23 22 21 21 21 20 18 15 13 14 14 14 14 15 16 16
24 23 20 21 22 22 25 32 38 41 44 46 46 46 46 45 45 45 45 45 45 45 46 47 48 48 48 50 51 53 53 53 50 47 46 42 37 34 32 31 30 30 28 27 30 33 35 35 35 36 35 35 35 35 34 33 31 30 29 29 28 27 27 27 26 26 26 26 26 24 21 19 19 18 17 14 12 12 14 15 15 16 17 16 14
26 25 22 19 19 19 24 32 38 42 44 46 46 46 46 44 43 44 44 44 44 44 45 46 46 46 47 49 50 52 53 52 50 49 47 44 40 36 34 33 33 32 29 28 31 35 36 37 37 36 35 35 35 34 32 31 29 29 28 28 27 26 26 27 27 28 28 28 26 23 20 18 17 17 15 13 12 14 15 15 16 17 16 14 13
26 27 25 21 18 16 21 29 36 40 42 45 46 46 45 44 43 44 45 45 45 44 44 45 46 45 46 47 48 49 51 51 51 51 49 46 43 41 38 36 35 33 31 32 34 36 37 37 37 35 34 34 34 32 30 29 27 26 27 26 24 23 22 23 23 25 25 24 22 20 19 18 17 16 14 13 14 15 15 14 15 16 15 15 16
24 27 28 25 20 16 18 25 34 38 39 41 43 44 44 44 44 44 45 46 46 45 44 45 45 45 44 46 47 47 48 49 50 50 50 48 46 43 40 38 36 34 33 35 38 37 37 37 36 34 33 33 32 30 29 28 27 26 26 25 24 21 20 19 18 18 19 18 18 18 17 17 17 17 16 15 15 15 15 15 15 16 17 17 17
20 24 27 28 26 22 19 21 30 37 38 39 41 43 45 45 44 44 46 47 47 46 46 47 47 45 44 44 45 45 45 45 46 46 47 47 46 44 41 38 37 36 36 38 39 37 36 36 34 33 33 33 31 30 29 28 27 26 26 24 23 21 18 17 18 19 19 19 19 18 17 17 17 17 18 18 16 15 16 16 17 17 18 19 17
17 20 24 27 29 28 25 23 26 31 36 40 43 45 47 47 46 46 48 49 49 48 48 47 47 46 44 43 43 44 44 44 44 43 43 43 43 43 43 41 40 40 40 40 39 37 36 35 34 32 31 31 30 29 28 27 26 25 23 22 22 20 17 18 20 20 19 19 19 20 20 20 18 20 22 22 18 16 17 17 18 19 19 19 18
15 16 20 23 26 29 31 31 29 26 29 35 41 44 46 48 48 47 48 49 50 50 50 48 46 46 45 42 41 42 43 42 42 40 39 39 40 41 42 43 42 41 40 40 38 37 36 35 33 31 30 29 28 27 25 24 23 21 19 20 20 20 19 19 21 21 21 22 23 23 23 23 24 26 26 22 17 16 17 18 18 20 21 20 19
15 13 15 18 21 25 29 32 33 29 27 31 38 44 47 50 51 50 50 51 51 51 50 49 46 46 46 44 40 40 41 41 40 39 37 37 38 38 39 40 40 39 39 38 37 36 35 35 33 30 29 28 25 23 22 21 20 18 18 21 22 22 22 23 23 24 25 26 26 25 25 26 28 27 23 18 16 17 18 18 20 21 22 22 20
16 13 12 14 17 19 23 28 31 31 30 32 38 43 47 51 53 53 53 52 51 50 50 49 47 47 46 43 39 37 38 39 39 38 37 37 37 36 36 36 36 36 35 35 34 33 34 34 32 28 26 24 21 21 21 20 18 18 19 22 23 24 25 26 26 27 28 29 29 29 28 27 26 23 18 16 17 18 19 19 20 20 19 19 18
19 14 12 13 15 18 22 26 30 32 34 35 38 41 45 48 51 50 49 48 47 47 47 47 47 47 46 42 37 35 36 38 38 38 37 37 36 36 36 36 36 34 34 34 32 32 34 35 31 27 25 24 23 24 23 20 18 19 20 22 23 26 28 29 29 28 27 27 26 25 24 22 20 18 17 17 18 19 20 20 18 17 17 16 15
24 18 14 13 14 17 21 26 30 33 35 37 39 41 44 47 48 47 47 46 46 45 45 45 46 46 43 39 36 35 36 37 37 36 36 37 37 38 38 38 37 35 34 33 32 31 32 32 30 27 26 25 25 26 24 20 18 20 22 22 23 24 24 25 26 25 23 22 20 18 17 16 16 17 18 18 19 20 20 19 19 19 19 17 15
25 21 17 14 13 14 17 22 26 29 32 35 40 43 45 48 48 47 47 48 48 47 46 45 44 44 42 38 37 38 37 35 35 35 36 38 39 40 39 38 36 34 33 32 31 30 29 30 29 28 28 28 27 27 24 20 19 20 20 20 20 19 20 21 22 22 22 21 19 17 16 15 15 17 18 18 19 19 19 19 20 20 19 18 17
24 21 17 15 13 11 12 16 21 24 26 30 34 38 42 44 45 44 45 46 46 45 44 43 43 42 41 39 39 40 38 35 34 36 38 40 40 41 40 38 36 34 32 32 32 32 32 33 32 31 29 27 26 24 21 19 20 21 20 19 18 18 19 20 20 19 20 19 18 17 16 15 15 16 17 17 17 17 17 17 17 17 17 17 17
21 20 17 14 12 10 8 10 15 21 25 27 29 33 36 38 39 40 42 42 43 42 42 43 42 38 36 36 39 40 39 36 37 39 41 41 41 41 39 37 36 35 34 34 35 34 34 33 30 26 22 23 23 22 21 21 21 21 20 20 19 19 19 19 18 18 18 17 17 17 17 17 17 17 16 16 15 15 15 15 14 14 15 15 15
16 17 16 13 10 9 8 8 9 14 21 26 28 31 34 36 37 39 39 39 40 40 39 39 39 37 34 36 39 40 38 37 38 39 41 41 40 38 37 36 35 36 36 35 34 32 30 28 25 21 21 24 25 23 22 22 21 20 19 18 18 18 17 17 16 16 16 16 16 16 17 17 17 17 16 15 15 15 14 14 14 14 14 14 14
11 12 13 15 13 10 9 8 8 8 12 18 21 24 30 35 36 37 37 36 36 37 36 36 38 39 39 41 43 41 39 38 39 40 40 40 39 39 38 38 37 36 34 32 31 29 28 27 24 22 23 25 24 21 20 19 19 18 17 16 16 15 15 15 16 16 16 15 15 15 16 17 17 16 15 15 15 14 14 14 14 14 13 13 13
9 8 8 12 15 15 13 9 5 3 5 11 15 18 22 29 31 32 33 34 33 34 36 38 40 43 43 43 42 40 37 35 35 35 36 36 36 36 37 37 36 35 33 30 29 27 26 25 23 22 23 23 21 19 19 19 18 17 17 16 15 16 16 16 17 17 16 15 15 15 16 16 15 15 15 14 14 14 13 13 13 13 13 13 13
7 7 6 7 12 15 16 13 9 8 6 10 16 21 25 29 32 32 34 35 35 36 36 37 39 41 41 39 37 35 32 31 31 31 31 31 30 30 30 30 29 28 28 27 26 24 22 21 20 19 20 20 19 19 18 17 17 17 17 17 17 17 17 17 17 17 15 14 14 14 14 15 15 16 16 15 14 13 13 13 13 13 13 13 13
5 5 5 3 7 11 14 14 13 11 11 12 12 15 21 28 33 34 33 33 33 34 34 34 34 35 36 35 34 32 32 31 31 30 30 29 28 27 26 25 24 24 23 22 21 20 18 18 17 16 17 18 18 17 17 17 17 17 17 17 17 17 17 17 17 16 15 14 14 14 14 14 14 15 15 15 14 14 14 13 14 14 14 14 14
3 3 3 1 3 6 10 13 13 12 12 13 13 13 16 21 27 31 33 33 33 32 32 32 31 31 32 33 33 32 31 31 30 29 29 29 28 26 24 22 21 20 19 19 18 17 16 15 15 15 15 15 15 14 15 15 15 15 15 16 16 16 17 17 17 16 16 15 15 14 14 14 14 15 15 14 14 14 14 14 14 14 14 14 15
1 1 1 1 3 5 7 10 12 13 12 13 14 16 17 18 20 23 26 27 28 28 28 29 29 29 30 30 30 30 29 29 28 27 26 25 24 22 20 18 17 16 15 15 15 14 13 13 14 14 14 14 13 14 14 14 13 13 13 13 14 15 15 15 15 15 14 14 14 14 15 15 15 15 15 14 14 14 14 14 14 14 15 15 15
1 2 3 4 5 6 7 8 10 13 14 13 15 17 19 20 21 22 21 20 20 20 20 20 20 20 20 21 22 22 21 21 22 21 20 19 18 17 15 14 14 15 15 15 14 13 13 14 14 14 14 13 13 13 13 13 12 12 11 11 12 13 13 14 14 14 13 13 13 13 14 14 14 14 14 15 15 15 15 16 16 16 16 17 17
Wind_Direction
220 220 221 221 219 217 216 217 218 219 221 222 224 225 225 226 226 226 226 227 227 228 230 231 231 232 230 226 222 218 216 216 216 217 217 218 221 222 220 220 219 216 215 216 216 216 215 212 209 206 208 213 217 223 231 237 242 243 241 248 267 278 278 277 279 271 252 259 266 256 264 281 291 306 317 327 335 337 341 344 341 343 350 355 2
220 221 222 223 223 221 219 218 219 220 222 224 225 226 227 227 228 229 230 229 230 230 230 232 233 234 233 231 228 224 221 219 219 219 220 220 220 222 222 224 225 221 218 219 220 221 222 223 222 218 218 220 221 224 230 237 243 247 250 261 271 274 274 279 286 285 268 258 271 271 274 293 309 324 328 333 339 341 343 345 342 347 353 355 1
220 222 223 224 225 225 223 222 221 222 223 224 226 227 228 229 230 231 232 232 233 233 233 234 235 235 235 234 232 230 227 224 222 222 223 222 221 221 222 224 227 227 224 222 222 223 226 230 232 233 234 235 233 233 236 241 249 256 261 269 273 271 272 275 280 287 288 285 285 286 292 306 318 328 331 332 336 339 342 343 341 346 351 350 353
219 221 223 225 226 226 226 225 224 224 224 225 227 228 229 230 231 232 233 234 235 235 236 236 237 237 236 236 235 234 232 230 227 224 224 225 225 222 223 225 227 229 229 228 226 225 228 231 234 237 241 245 247 247 248 249 251 255 259 264 268 270 271 273 276 283 288 291 297 305 309 316 323 328 330 329 332 337 338 339 339 342 346 348 349
219 221 223 225 225 226 227 228 227 227 227 227 227 228 229 231 231 233 233 234 235 236 237 237 238 237 237 237 237 237 236 235 232 228 225 226 227 225 224 225 227 230 231 232 232 231 232 234 234 235 238 243 247 249 252 253 252 254 257 259 263 267 268 269 273 277 282 288 297 305 309 313 317 324 330 328 330 335 337 335 336 337 340 344 345
218 221 223 224 225 227 228 228 229 230 230 230 229 229 230 231 232 233 234 234 235 235 236 237 238 238 239 239 239 239 239 239 236 232 228 227 227 228 227 227 228 230 231 233 234 235 237 238 238 237 238 241 244 246 248 252 254 255 257 258 261 265 265 266 269 272 276 284 291 296 302 306 310 319 328 327 327 333 335 332 332 336 336 338 341
218 220 223 225 226 228 229 229 230 232 232 233 232 231 231 232 233 234 234 235 235 235 236 237 238 240 240 241 241 241 240 240 239 236 233 230 229 229 229 229 230 231 232 233 234 235 237 239 240 241 242 244 246 247 249 251 254 256 256 257 259 261 263 265 266 269 273 277 281 286 293 300 306 315 324 326 326 331 332 328 329 334 334 334 336
218 220 222 224 227 229 230 231 232 233 234 234 234 234 233 233 233 234 235 235 236 236 237 238 239 241 242 243 243 242 241 240 240 239 237 234 232 231 231 231 230 231 233 234 235 235 236 237 239 241 244 247 249 250 252 253 256 258 258 257 258 260 262 264 265 267 270 272 274 278 287 295 303 313 321 325 325 327 328 323 323 330 332 331 330
218 220 222 224 228 230 231 232 233 234 235 235 235 235 234 234 234 235 236 236 237 237 238 239 241 242 243 243 242 242 241 240 239 239 238 236 235 234 233 231 231 233 235 236 237 238 238 238 239 240 242 245 247 249 251 252 255 257 258 258 259 260 262 264 266 268 269 270 272 277 286 293 301 312 319 322 323 322 323 321 320 324 328 328 327
219 221 223 225 228 230 231 232 234 235 235 236 236 236 235 234 234 235 236 237 237 238 238 240 241 242 243 243 242 241 240 240 239 238 238 238 237 237 236 234 233 234 235 237 239 240 241 241 240 241 243 244 246 247 247 248 250 253 256 257 258 259 262 264 265 267 270 272 274 280 287 292 301 311 315 319 321 320 320 320 319 321 324 325 327
220 221 223 226 228 229 231 233 234 235 236 236 237 237 235 234 234 234 235 236 237 238 238 239 240 241 242 242 241 241 240 240 239 238 237 238 238 238 239 238 237 237 236 237 238 240 242 243 243 244 244 245 246 246 246 246 247 250 252 253 255 257 259 263 266 269 272 273 276 280 285 292 302 308 311 317 320 318 317 316 316 319 321 320 323
220 222 224 226 227 229 231 233 234 235 237 237 238 238 236 234 234 233 234 235 236 237 237 238 239 240 241 241 241 241 241 240 239 239 238 238 238 239 241 241 241 241 241 240 240 241 243 244 246 246 245 246 247 246 247 247 246 247 247 248 253 257 260 264 268 271 273 275 278 279 282 290 299 306 311 316 316 312 312 312 313 316 315 312 314
219 221 224 225 228 230 231 233 234 235 237 238 238 238 237 235 233 233 233 234 235 236 237 238 238 239 239 240 240 240 241 241 240 240 239 238 239 239 240 243 244 244 245 245 244 244 245 246 247 247 247 248 249 249 249 248 247 245 244 245 250 255 258 262 266 270 272 274 275 275 281 289 296 303 311 312 309 306 307 308 308 307 305 307 312
222 223 226 227 229 231 233 234 235 236 237 238 239 238 238 236 234 233 232 233 234 235 236 237 237 238 238 239 240 240 241 241 241 241 240 240 240 240 241 243 244 246 247 247 248 248 248 249 250 249 250 251 253 254 253 251 250 248 246 247 250 253 256 258 262 266 268 270 271 275 283 290 296 303 308 305 300 300 300 299 298 296 299 308 313
227 226 227 229 231 232 234 235 236 236 237 238 240 239 239 237 235 233 231 232 233 234 235 236 237 237 237 237 238 240 241 242 242 242 242 242 242 242 243 243 245 247 248 249 250 251 251 252 254 253 254 254 255 256 257 257 256 254 253 252 253 256 257 258 261 263 266 269 273 279 287 292 296 300 301 296 293 293 290 288 288 290 298 308 310
229 228 228 229 230 232 233 234 234 236 236 238 240 240 239 238 236 233 231 231 232 234 235 236 236 237 237 236 237 239 242 243 243 242 242 242 243 244 244 245 246 247 248 249 250 251 252 254 255 255 256 256 255 256 258 260 260 259 258 255 255 256 257 257 259 263 266 270 275 281 287 291 293 294 293 291 292 291 286 281 282 288 294 301 305
230 230 229 230 231 231 233 234 234 235 237 239 241 241 240 239 237 234 232 230 231 232 233 235 236 237 237 236 236 238 241 242 242 242 241 241 243 244 244 245 246 247 248 248 249 249 251 252 253 255 256 256 255 256 258 260 261 260 259 257 257 258 257 257 259 262 266 270 275 280 284 286 288 289 289 291 292 288 282 280 283 286 287 292 299
234 233 230 230 231 232 233 234 234 236 238 241 243 242 241 240 238 235 233 231 231 232 233 234 236 236 237 237 236 238 240 242 242 242 241 240 241 243 243 244 245 246 247 247 248 248 248 249 251 253 254 255 255 255 257 258 258 257 257 257 258 258 257 258 261 264 267 271 275 278 281 284 287 289 290 291 289 281 274 276 281 281 281 286 294
244 242 238 236 234 234 235 236 237 238 241 243 243 243 243 242 240 237 235 232 231 231 232 233 234 235 237 237 237 238 240 242 243 243 242 242 241 242 242 242 243 244 246 246 247 247 246 247 249 251 253 254 255 255 256 256 255 255 254 255 257 258 261 263 266 269 272 274 277 280 283 286 288 288 288 288 284 276 270 272 275 274 277 284 290
251 251 249 245 242 239 239 239 240 241 243 244 244 243 243 242 240 238 236 233 231 230 231 233 234 235 236 237 237 238 239 241 243 244 244 243 243 242 242 241 242 244 245 246 247 247 247 247 248 250 252 254 256 257 257 256 256 257 256 256 258 262 268 272 273 275 277 279 281 283 284 285 285 285 285 285 282 277 271 269 269 270 274 279 282
255 251 249 250 248 245 243 241 242 243 244 244 243 242 242 242 239 238 236 233 231 230 230 232 233 235 236 236 237 238 239 240 242 244 245 244 244 242 241 242 244 246 248 249 249 249 248 248 249 251 253 256 257 259 259 259 260 260 261 262 265 271 276 278 278 280 281 281 282 282 282 282 282 283 285 285 284 282 278 274 269 267 269 271 273
257 255 250 250 250 249 245 241 240 241 242 242 241 241 241 240 239 238 236 234 232 230 229 230 232 234 235 236 237 239 239 240 241 243 244 245 245 243 242 243 246 248 250 252 252 252 252 252 254 255 257 260 261 262 263 263 263 263 264 266 270 273 275 277 278 280 280 280 280 279 280 281 282 283 284 284 284 283 281 279 273 267 264 263 267
257 255 251 249 249 251 248 242 239 239 240 240 239 239 238 237 236 236 235 233 232 230 229 229 231 233 234 235 236 238 239 240 241 242 244 245 245 244 243 245 248 249 250 253 255 257 259 260 260 260 260 261 262 263 264 264 265 266 267 269 271 272 273 274 276 276 277 277 277 277 277 278 279 281 283 285 285 282 279 277 275 270 264 264 270
257 255 251 248 247 249 251 247 241 238 238 238 237 236 235 234 234 233 233 233 232 230 229 228 229 231 233 234 235 236 237 238 240 242 244 244 245 245 245 246 248 249 251 254 257 260 262 263 262 262 263 264 265 265 265 264 264 265 266 267 269 269 269 270 270 271 272 272 271 272 273 275 277 281 284 285 284 280 275 271 269 268 267 270 276
259 257 254 251 247 246 248 249 244 239 236 235 234 234 233 231 230 231 231 232 231 230 229 228 228 229 231 232 234 235 236 237 238 241 243 244 245 246 246 246 247 248 251 254 257 260 261 263 264 265 266 267 267 267 265 263 262 262 262 262 261 260 260 260 261 262 263 264 266 268 271 275 278 281 282 281 279 275 270 266 263 263 266 270 275
265 262 260 255 250 246 246 247 244 239 234 233 233 233 233 231 230 230 230 231 232 231 230 228 228 229 230 232 233 234 234 235 237 240 242 243 244 245 245 245 246 248 250 253 256 258 260 262 264 265 266 266 267 268 267 265 265 264 262 258 254 252 251 252 254 256 259 262 266 269 273 277 278 278 280 281 279 275 270 266 262 261 262 265 270
269 266 264 259 251 246 245 245 242 236 232 230 230 230 230 231 231 230 230 231 231 230 229 229 229 229 230 231 232 233 234 235 237 239 241 241 242 242 242 243 243 244 247 249 251 253 256 258 260 261 263 265 266 267 267 266 266 266 264 259 254 250 250 252 255 257 260 265 268 271 274 277 278 280 282 281 277 272 267 262 259 256 257 261 265
272 269 266 262 252 246 246 246 240 234 230 228 228 227 227 227 229 231 233 233 232 231 230 230 230 230 230 230 231 231 232 234 237 239 240 241 241 240 239 239 238 237 239 241 244 247 250 252 255 257 259 261 262 263 265 266 267 269 268 263 258 254 253 254 255 257 261 265 268 272 276 280 282 284 282 277 272 267 260 254 253 254 255 257 261
275 271 269 265 256 250 250 247 240 234 230 228 228 228 228 229 230 233 235 237 239 239 236 234 233 232 231 231 231 230 231 234 238 241 241 242 243 242 241 239 237 236 238 239 241 244 246 248 250 252 255 257 259 261 264 266 267 269 269 266 263 259 256 254 256 260 265 267 269 273 277 280 280 280 275 268 263 257 251 250 252 254 255 256 259
279 273 272 270 263 256 253 247 239 233 229 227 226 226 227 228 231 233 236 239 241 243 243 241 239 235 233 234 234 234 235 238 241 242 243 245 245 244 244 244 243 244 244 243 241 242 245 246 248 250 252 255 257 259 262 264 266 268 268 268 266 263 259 257 257 260 263 265 269 272 272 271 271 270 265 260 258 257 257 257 257 256 255 253 251
284 277 275 274 270 263 256 248 239 233 229 226 223 223 224 227 230 233 236 238 240 242 243 243 242 240 239 238 238 238 239 241 242 242 244 246 247 247 246 246 247 248 248 244 242 243 245 245 246 248 250 253 255 257 259 261 263 265 268 269 269 267 263 258 257 259 262 264 266 266 260 256 261 265 264 263 267 269 266 262 258 253 247 240 236
286 278 274 273 273 267 256 246 237 230 226 222 221 223 225 227 231 233 235 236 237 240 242 242 241 241 242 242 242 241 240 240 240 242 244 246 248 249 249 249 249 249 246 243 242 244 245 246 247 248 250 251 252 253 254 255 257 261 265 269 271 271 266 260 258 258 259 259 257 252 247 250 258 262 261 263 268 270 269 263 254 244 235 232 234
286 276 271 271 270 266 255 241 231 225 219 215 216 222 226 228 232 235 236 235 235 236 240 242 242 241 242 243 243 243 243 242 241 242 244 245 247 248 249 249 248 246 242 240 241 242 244 245 246 247 248 250 250 251 252 253 257 261 265 269 273 274 269 265 258 250 246 246 244 241 243 250 256 257 258 260 264 269 272 265 253 244 239 236 236
291 278 271 269 267 263 258 245 232 225 220 216 216 222 227 231 235 238 237 236 234 234 236 239 240 241 241 242 242 242 242 243 243 243 244 245 247 247 247 246 244 242 240 239 239 240 241 241 242 243 245 247 249 250 251 253 256 260 263 268 273 274 268 258 246 238 236 238 239 241 245 248 252 258 261 258 256 262 266 261 253 248 242 237 239
297 280 272 270 268 263 260 255 242 230 223 221 222 226 229 232 236 238 238 237 236 236 236 236 237 238 239 239 240 240 241 241 242 243 244 245 246 246 245 244 243 241 240 238 238 239 239 239 239 239 241 243 245 247 250 253 256 257 261 266 270 269 261 245 235 234 237 242 244 248 251 251 254 257 255 250 248 254 257 255 250 244 238 239 248
311 287 273 269 269 267 263 262 258 245 230 225 227 230 233 233 234 238 240 240 239 238 238 237 237 237 236 236 237 239 240 241 242 243 243 244 245 245 244 244 244 243 243 242 240 239 237 236 235 236 237 240 243 246 249 253 255 257 260 263 264 263 257 246 237 235 240 245 247 247 249 251 251 248 243 241 246 253 253 249 244 240 239 245 248
325 301 278 266 266 269 269 267 265 260 248 235 232 233 235 234 235 237 241 241 239 236 235 236 236 236 235 233 233 235 237 238 239 240 241 240 241 242 243 245 245 245 245 244 242 239 238 237 236 237 238 239 241 244 248 252 255 258 261 262 261 258 256 254 248 242 242 246 248 247 248 249 244 238 236 242 250 250 244 241 241 242 245 245 239
337 315 291 269 258 259 264 266 264 259 251 242 236 235 235 234 234 235 238 239 236 233 232 234 236 237 235 233 231 232 233 234 234 236 236 236 235 236 237 240 241 242 242 241 240 240 241 239 236 238 241 241 239 242 245 249 254 258 259 261 261 258 257 258 256 252 251 251 249 244 240 236 231 229 234 244 246 241 238 240 243 244 240 235 229
354 333 302 275 257 249 251 256 258 256 251 245 240 237 237 235 234 234 237 239 238 235 233 235 236 236 236 235 233 231 230 230 231 233 233 233 231 231 231 234 235 235 235 235 235 237 240 239 237 238 240 238 238 241 241 243 251 257 256 258 263 264 262 257 251 247 244 241 235 230 226 224 227 234 240 239 238 237 239 241 241 234 225 223 227
360 349 324 294 269 255 252 251 251 250 247 244 240 237 237 237 236 235 237 240 242 241 240 238 236 234 233 233 233 231 228 226 228 231 232 231 230 229 229 231 231 230 230 232 232 233 234 234 235 237 238 237 240 242 240 241 252 259 258 259 263 263 256 245 236 231 227 224 221 221 224 227 232 236 236 235 236 238 238 238 235 227 222 225 231
358 355 341 317 292 273 264 257 252 247 243 240 237 236 235 235 234 235 235 237 238 239 237 234 232 231 229 229 230 229 226 223 225 228 231 230 229 227 226 226 226 226 226 227 229 230 229 230 233 236 236 236 237 237 237 243 256 261 259 257 257 252 240 232 228 226 226 227 227 227 228 229 228 229 230 231 233 234 233 231 228 225 227 232 238
354 356 349 331 312 295 277 262 254 248 242 238 237 238 236 235 233 234 234 233 232 231 230 227 225 224 222 222 224 225 222 219 219 221 223 224 224 222 221 219 219 220 222 225 228 229 229 230 230 229 229 230 232 234 240 252 261 260 255 249 244 237 228 224 224 222 223 225 226 225 225 225 223 221 222 224 225 227 228 226 224 227 234 241 245
351 357 357 342 323 313 301 270 247 235 230 230 233 236 236 234 231 230 229 227 226 226 224 221 219 215 210 210 216 218 215 212 211 212 214 216 215 215 215 215 217 219 223 225 226 226 226 225 223 223 231 239 240 241 246 249 249 248 246 241 235 229 224 222 222 221 219 218 217 217 217 217 215 214 216 217 217 217 219 221 224 230 235 237 239
349 358 7 2 340 324 320 304 268 237 222 219 221 226 227 226 223 220 219 218 219 219 216 213 213 211 205 203 207 207 201 199 201 204 207 210 210 210 211 214 217 218 219 219 218 218 220 221 222 227 236 236 231 231 235 236 233 233 233 230 226 225 225 225 222 218 214 211 209 208 209 210 212 212 213 212 211 212 213 216 218 220 224 228 233
342 351 12 22 16 1 349 337 318 282 239 220 213 215 220 220 215 211 212 213 212 211 207 204 206 207 204 199 199 199 196 193 194 196 199 203 206 208 209 211 212 211 211 210 210 210 212 213 217 223 225 221 217 218 222 222 218 216 216 214 213 214 216 214 210 206 206 207 207 206 206 208 210 211 212 211 212 212 212 212 214 217 222 229 235
331 330 5 34 39 33 27 25 22 349 234 205 183 174 189 200 200 198 202 205 202 197 195 196 198 200 199 194 193 194 193 191 189 190 194 197 199 199 199 200 200 199 199 199 200 202 204 205 207 210 212 210 208 209 209 207 204 201 198 197 197 199 199 199 199 199 201 204 206 207 208 209 210 213 216 216 215 215 217 218 220 223 227 231 236
330 317 333 31 53 49 43 45 57 73 112 152 147 141 153 170 177 180 185 187 182 178 177 178 181 185 186 184 183 184 185 185 186 189 194 197 196 192 191 191 190 189 188 188 188 191 193 194 194 196 198 198 197 195 193 192 191 191 190 189 190 191 192 194 197 200 202 205 208 210 213 216 218 220 221 223 225 227 228 229 230 232 235 239 243
333 314 309 0 61 64 59 58 61 69 89 112 118 117 133 150 159 165 169 169 166 163 161 159 159 163 166 168 171 175 177 179 181 183 186 190 190 187 186 187 187 186 185 183 181 181 181 180 180 182 185 186 185 184 184 183 183 183 185 187 189 191 193 195 198 202 205 208 211 213 215 218 222 224 225 228 231 232 233 234 236 239 242 246 250
328 322 304 351 73 80 77 76 77 78 85 97 103 102 110 126 138 146 152 153 152 152 153 154 154 154 155 157 163 167 170 172 175 177 179 182 182 180 179 180 180 180 179 176 172 170 169 169 169 171 172 173 174 177 180 182 180 180 182 185 188 191 194 195 198 202 207 209 213 217 221 224 227 229 232 235 237 238 240 242 245 249 252 255 258
265 71 65 75 89 100 102 98 97 97 95 99 107 112 112 114 120 127 134 139 141 141 144 148 151 150 148 148 153 158 161 163 166 169 171 172 171 168 166 165 164 165 165 164 161 161 163 165 166 167 168 170 172 175 178 180 181 181 183 187 190 195 200 202 204 207 210 213 217 221 225 229 233 236 240 243 246 248 251 254 257 261 265 267 269
218 107 97 93 95 106 114 110 105 105 105 105 107 110 113 116 118 118 120 123 126 127 129 134 139 142 140 138 139 144 148 149 149 149 149 150 150 148 147 148 150 152 153 153 151 151 154 158 160 161 163 165 169 173 175 177 179 181 185 190 195 199 203 208 211 215 220 226 230 232 234 238 241 244 248 252 254 257 260 263 266 269 271 273 276
Height
1530 1533 1536 1539 1541 1544 1547 1549 1552 1554 1557 1559 1561 1562 1565 1567 1569 1571 1573 1574 1575 1577 1578 1579 1580 1581 1582 1583 1584 1585 1585 1586 1588 1589 1589 1590 1591 1592 1593 1594 1595 1595 1596 1597 1597 1598 1598 1599 1599 1599 1600 1600 1601 1601 1601 1601 1602 1602 1602 1602 1602 1602 1602 1602 1601 1601 1601 1601 1601 1601 1601 1600 1600 1599 1598 1597 1596 1595 1594 1593 1592 1591 1590 1589 1588
1527 1530 1533 1536 1538 1541 1543 1546 1549 1551 1554 1556 1557 1559 1562 1564 1566 1568 1570 1571 1573 1574 1576 1577 1578 1579 1580 1581 1582 1583 1584 1585 1586 1587 1588 1589 1590 1591 1592 1592 1593 1594 1595 1595 1596 1597 1597 1598 1598 1599 1599 1599 1600 1600 1600 1601 1601 1601 1601 1601 1601 1601 1601 1601 1600 1600 1600 1600 1600 1600 1600 1599 1598 1598 1597 1596 1595 1594 1593 1592 1591 1590 1589 1588 1587
1524 1527 1530 1532 1535 1538 1541 1543 1545 1548 1550 1552 1554 1556 1558 1560 1563 1565 1567 1569 1570 1572 1573 1574 1576 1576 1577 1578 1579 1580 1582 1583 1584 1585 1586 1587 1588 1589 1590 1591 1592 1592 1593 1594 1595 1595 1596 1596 1597 1598 1598 1598 1598 1599 1599 1600 1600 1599 1600 1600 1600 1600 1600 1600 1599 1599 1598 1598 1598 1599 1598 1598 1597 1596 1596 1595 1594 1593 1592 1591 1590 1589 1588 1587 1586
1522 1525 1527 1529 1532 1535 1537 1540 1542 1544 1546 1548 1550 1553 1555 1557 1560 1562 1564 1566 1567 1569 1570 1572 1573 1574 1575 1576 1577 1578 1579 1581 1582 1583 1584 1586 1587 1588 1588 1589 1590 1591 1591 1592 1593 1594 1594 1595 1596 1596 1597 1597 1597 1598 1598 1599 1599 1598 1599 1599 1598 1599 1599 1598 1598 1598 1597 1597 1597 1597 1596 1596 1595 1595 1594 1593 1593 1592 1591 1590 1589 1588 1587 1586 1585
1519 1522 1524 1527 1529 1531 1534 1536 1539 1541 1543 1545 1547 1550 1552 1554 1556 1558 1560 1563 1564 1566 1567 1569 1570 1571 1572 1573 1574 1576 1577 1578 1580 1581 1582 1584 1585 1586 1587 1588 1588 1589 1590 1591 1592 1592 1593 1593 1594 1595 1595 1595 1595 1596 1597 1597 1597 1597 1597 1597 1597 1597 1597 1597 1597 1597 1596 1595 1595 1595 1595 1594 1594 1594 1593 1592 1591 1590 1589 1588 1588 1586 1585 1584 1584
1516 1518 1521 1524 1526 1528 1530 1532 1534 1537 1539 1542 1544 1547 1549 1551 1553 1555 1557 1559 1561 1563 1564 1565 1567 1568 1570 1571 1572 1574 1575 1576 1577 1579 1580 1582 1583 1584 1585 1586 1587 1588 1588 1589 1590 1590 1591 1591 1592 1593 1593 1593 1594 1594 1595 1595 1596 1596 1596 1596 1596 1596 1596 1596 1596 1595 1595 1594 1593 1593 1593 1593 1593 1592 1592 1591 1590 1588 1587 1586 1586 1585 1584 1583 1582
1512 1515 1517 1520 1522 1524 1526 1528 1531 1534 1537 1539 1542 1544 1546 1548 1550 1552 1554 1556 1558 1560 1561 1562 1564 1565 1567 1569 1570 1571 1572 1573 1575 1576 1578 1579 1581 1582 1583 1584 1585 1586 1587 1587 1588 1589 1589 1589 1590 1591 1591 1591 1592 1593 1593 1593 1594 1594 1594 1595 1595 1595 1594 1594 1594 1594 1593 1593 1592 1592 1592 1592 1591 1591 1590 1590 1589 1588 1586 1584 1583 1583 1583 1581 1581
1509 1512 1514 1516 1518 1520 1523 1526 1528 1531 1534 1536 1539 1541 1543 1545 1547 1549 1552 1553 1555 1557 1558 1560 1561 1563 1564 1566 1567 1569 1570 1571 1572 1574 1575 1577 1578 1579 1580 1582 1583 1583 1584 1585 1586 1586 1587 1587 1588 1588 1589 1589 1590 1590 1591 1591 1592 1592 1592 1593 1593 1593 1593 1593 1593 1592 1592 1592 1591 1591 1591 1590 1590 1589 1589 1588 1587 1586 1586 1584 1582 1581 1580 1580 1579
1506 1509 1510 1512 1514 1517 1520 1523 1525 1528 1530 1533 1535 1537 1539 1542 1544 1546 1548 1550 1552 1554 1556 1557 1559 1560 1561 1563 1564 1565 1566 1568 1569 1571 1573 1574 1575 1577 1578 1579 1580 1581 1582 1583 1584 1584 1585 1585 1585 1586 1587 1587 1588 1588 1589 1589 1589 1589 1590 1590 1590 1590 1591 1591 1591 1591 1590 1590 1590 1590 1589 1588 1588 1588 1587 1587 1586 1585 1584 1583 1581 1580 1579 1578 1578
1503 1505 1506 1508 1511 1514 1517 1519 1522 1524 1526 1529 1531 1533 1536 1538 1541 1543 1545 1546 1549 1551 1553 1554 1555 1557 1558 1559 1561 1562 1563 1564 1566 1568 1570 1571 1573 1574 1575 1577 1578 1579 1580 1580 1581 1582 1582 1583 1583 1584 1584 1585 1585 1586 1587 1587 1587 1587 1588 1588 1588 1588 1588 1588 1589 1589 1589 1588 1588 1588 1588 1586 1586 1587 1586 1585 1585 1584 1583 1582 1580 1579 1578 1576 1576
1499 1501 1502 1505 1508 1510 1512 1515 1518 1520 1522 1525 1527 1529 1532 1535 1537 1539 1541 1543 1545 1547 1549 1551 1552 1553 1555 1556 1558 1559 1560 1561 1563 1565 1567 1569 1570 1571 1573 1574 1575 1576 1577 1578 1578 1579 1579 1580 1581 1581 1581 1582 1583 1583 1584 1584 1585 1585 1585 1586 1586 1586 1586 1586 1587 1587 1587 1586 1586 1586 1586 1584 1584 1585 1585 1584 1583 1582 1581 1580 1579 1578 1577 1575 1574
1493 1495 1498 1501 1503 1505 1508 1510 1513 1515 1518 1520 1523 1526 1529 1531 1534 1536 1538 1540 1542 1544 1546 1547 1549 1551 1552 1553 1554 1555 1557 1558 1560 1562 1564 1565 1567 1568 1570 1571 1572 1573 1574 1575 1576 1576 1577 1577 1578 1578 1579 1579 1580 1580 1581 1581 1582 1582 1583 1583 1583 1584 1584 1584 1585 1585 1585 1585 1584 1584 1584 1583 1582 1583 1583 1582 1581 1580 1579 1579 1578 1577 1576 1575 1573
1491 1492 1494 1496 1498 1500 1503 1505 1508 1511 1513 1516 1519 1522 1524 1527 1530 1532 1535 1537 1539 1541 1542 1544 1546 1547 1549 1550 1551 1552 1553 1555 1557 1559 1561 1562 1564 1565 1567 1568 1568 1570 1571 1571 1572 1573 1574 1575 1575 1575 1576 1576 1577 1577 1578 1578 1579 1580 1580 1580 1581 1581 1581 1582 1582 1583 1583 1583 1582 1581 1582 1582 1581 1581 1582 1581 1579 1579 1578 1577 1577 1576 1575 1574 1573
1490 1490 1492 1493 1494 1496 1498 1500 1503 1506 1509 1512 1515 1517 1520 1522 1525 1529 1532 1534 1536 1537 1539 1541 1542 1544 1545 1546 1547 1549 1550 1552 1554 1556 1557 1559 1561 1563 1564 1565 1566 1566 1567 1568 1569 1570 1571 1572 1572 1572 1573 1574 1574 1574 1575 1575 1576 1577 1577 1577 1578 1578 1579 1579 1580 1580 1580 1580 1579 1579 1580 1580 1579 1579 1580 1579 1578 1577 1576 1576 1575 1574 1574 1573 1571
1487 1488 1490 1490 1491 1493 1494 1496 1498 1501 1505 1508 1510 1513 1515 1518 1521 1525 1528 1530 1532 1534 1535 1537 1539 1540 1542 1543 1544 1545 1547 1548 1551 1552 1554 1556 1558 1560 1561 1562 1563 1564 1564 1565 1566 1567 1568 1569 1569 1570 1570 1571 1571 1572 1572 1573 1573 1573 1574 1574 1575 1575 1576 1576 1577 1577 1578 1578 1577 1577 1577 1578 1577 1577 1577 1577 1576 1575 1575 1574 1573 1572 1572 1571 1570
1483 1484 1486 1487 1488 1489 1491 1493 1495 1497 1501 1503 1506 1508 1511 1514 1518 1521 1524 1527 1529 1530 1532 1533 1535 1536 1538 1540 1541 1542 1543 1545 1547 1549 1551 1553 1555 1557 1558 1559 1560 1560 1561 1562 1563 1564 1565 1565 1566 1566 1567 1567 1568 1569 1569 1570 1570 1570 1570 1571 1571 1572 1572 1573 1574 1575 1575 1575 1575 1575 1575 1576 1575 1575 1575 1574 1574 1573 1572 1571 1570 1570 1569 1568 1567
1480 1480 1482 1483 1485 1487 1488 1490 1492 1494 1497 1499 1501 1504 1507 1511 1514 1517 1520 1523 1525 1526 1528 1530 1531 1533 1535 1537 1538 1539 1540 1542 1543 1546 1548 1550 1552 1553 1555 1556 1556 1557 1558 1559 1560 1560 1561 1562 1562 1563 1563 1564 1565 1566 1567 1567 1567 1567 1567 1567 1568 1568 1569 1570 1571 1572 1572 1572 1573 1573 1573 1573 1573 1572 1572 1572 1571 1571 1569 1568 1568 1568 1567 1565 1564
1479 1479 1479 1480 1482 1484 1485 1487 1489 1491 1493 1495 1497 1500 1504 1507 1510 1513 1516 1519 1521 1523 1525 1527 1528 1530 1531 1533 1534 1536 1537 1538 1540 1542 1544 1547 1549 1550 1552 1552 1553 1554 1554 1555 1556 1557 1558 1558 1559 1559 1560 1560 1561 1562 1564 1564 1564 1564 1564 1564 1564 1564 1565 1566 1568 1568 1569 1570 1570 1570 1570 1570 1569 1569 1569 1569 1569 1568 1566 1565 1565 1565 1563 1562 1561
1477 1477 1477 1478 1479 1481 1482 1484 1485 1487 1489 1491 1494 1497 1500 1503 1507 1510 1512 1515 1517 1520 1522 1523 1525 1526 1528 1529 1531 1533 1534 1535 1537 1539 1541 1543 1545 1547 1549 1549 1550 1551 1551 1551 1552 1553 1554 1555 1555 1556 1556 1557 1558 1559 1560 1561 1561 1561 1561 1561 1561 1561 1562 1564 1565 1565 1566 1566 1566 1566 1566 1566 1566 1565 1565 1565 1565 1564 1563 1562 1562 1561 1559 1559 1559
1472 1472 1473 1474 1476 1477 1478 1480 1481 1483 1485 1487 1491 1494 1497 1500 1503 1506 1508 1511 1514 1517 1518 1520 1521 1522 1524 1526 1528 1529 1531 1532 1534 1535 1537 1540 1542 1544 1545 1546 1547 1547 1548 1548 1548 1549 1550 1551 1551 1552 1553 1553 1554 1555 1556 1557 1558 1558 1558 1558 1558 1558 1560 1561 1562 1562 1562 1563 1563 1563 1562 1562 1562 1561 1561 1561 1561 1560 1559 1559 1559 1558 1556 1556 1556
1466 1466 1467 1468 1470 1472 1474 1476 1477 1479 1481 1484 1487 1490 1493 1496 1499 1502 1504 1507 1510 1513 1515 1516 1518 1519 1521 1522 1523 1525 1527 1528 1530 1532 1534 1536 1538 1540 1541 1542 1543 1544 1544 1545 1545 1545 1546 1547 1548 1549 1550 1550 1551 1552 1552 1553 1554 1554 1555 1554 1555 1556 1557 1558 1558 1559 1559 1559 1559 1559 1558 1558 1558 1557 1557 1556 1556 1555 1555 1555 1555 1554 1553 1553 1553
1461 1462 1463 1464 1466 1468 1470 1472 1474 1476 1479 1481 1484 1486 1489 1493 1495 1498 1501 1504 1506 1509 1511 1513 1514 1515 1517 1518 1519 1521 1522 1525 1526 1528 1530 1532 1533 1536 1537 1538 1539 1540 1540 1541 1541 1541 1543 1544 1545 1546 1547 1547 1548 1548 1549 1550 1550 1550 1551 1551 1552 1553 1554 1554 1555 1555 1555 1555 1555 1555 1555 1554 1554 1553 1553 1552 1551 1551 1551 1551 1551 1551 1550 1550 1550
1457 1458 1459 1460 1462 1464 1466 1468 1470 1473 1475 1477 1480 1483 1486 1489 1492 1495 1497 1500 1502 1505 1507 1509 1511 1512 1513 1514 1515 1516 1518 1520 1522 1524 1526 1528 1529 1531 1532 1534 1535 1536 1536 1536 1537 1538 1540 1541 1542 1543 1544 1544 1545 1546 1546 1547 1547 1547 1547 1548 1549 1550 1550 1551 1551 1551 1551 1551 1551 1551 1551 1551 1550 1549 1549 1548 1548 1547 1547 1547 1547 1548 1548 1548 1548
1454 1455 1456 1457 1458 1460 1462 1464 1467 1469 1472 1474 1477 1479 1482 1485 1488 1491 1493 1496 1498 1500 1502 1504 1506 1507 1508 1509 1510 1512 1514 1516 1517 1519 1521 1523 1525 1526 1528 1530 1531 1532 1533 1533 1534 1535 1536 1537 1538 1539 1541 1542 1542 1543 1544 1544 1544 1544 1544 1545 1546 1547 1547 1547 1547 1547 1547 1547 1547 1546 1547 1547 1547 1546 1545 1545 1544 1544 1543 1544 1544 1545 1545 1545 1545
1452 1452 1453 1454 1455 1457 1458 1461 1463 1465 1468 1471 1473 1476 1479 1482 1484 1487 1489 1492 1493 1495 1497 1499 1501 1502 1504 1504 1505 1507 1509 1511 1513 1514 1516 1518 1520 1522 1524 1525 1527 1529 1529 1529 1531 1532 1533 1534 1535 1536 1537 1538 1539 1540 1540 1540 1541 1541 1541 1542 1542 1542 1542 1543 1543 1543 1543 1543 1543 1543 1543 1543 1543 1543 1542 1542 1541 1541 1540 1540 1540 1541 1542 1542 1542
1449 1449 1450 1450 1452 1453 1455 1457 1459 1462 1464 1467 1469 1472 1475 1477 1480 1482 1485 1486 1488 1489 1491 1494 1496 1497 1498 1499 1500 1502 1505 1507 1508 1509 1511 1513 1515 1517 1519 1521 1524 1525 1526 1526 1528 1529 1530 1531 1532 1532 1533 1534 1535 1535 1536 1536 1537 1537 1538 1538 1538 1538 1539 1539 1539 1539 1539 1539 1539 1539 1540 1540 1540 1539 1539 1539 1538 1538 1538 1537 1537 1537 1538 1538 1539
1446 1446 1447 1447 1449 1450 1451 1453 1455 1458 1461 1463 1465 1468 1471 1473 1475 1477 1479 1480 1482 1484 1486 1488 1490 1491 1492 1494 1497 1499 1501 1503 1504 1504 1506 1508 1510 1513 1515 1517 1519 1521 1522 1522 1523 1525 1526 1527 1528 1529 1530 1530 1531 1531 1532 1532 1533 1533 1534 1534 1534 1535 1536 1536 1536 1536 1536 1537 1536 1536 1536 1536 1536 1536 1536 1535 1535 1535 1535 1535 1534 1535 1535 1536 1536
1443 1443 1444 1444 1445 1446 1448 1450 1452 1454 1457 1459 1461 1463 1466 1468 1470 1472 1473 1475 1477 1479 1481 1482 1483 1485 1487 1490 1493 1495 1497 1497 1497 1498 1500 1502 1505 1508 1510 1512 1514 1516 1516 1517 1519 1520 1522 1523 1524 1525 1525 1526 1526 1527 1527 1528 1529 1529 1530 1531 1531 1532 1532 1533 1533 1533 1533 1533 1533 1533 1533 1533 1532 1532 1532 1532 1532 1532 1533 1533 1533 1533 1534 1534 1534
1440 1440 1441 1441 1442 1443 1444 1446 1448 1450 1452 1455 1457 1459 1461 1463 1465 1467 1468 1471 1473 1474 1475 1476 1477 1480 1483 1486 1488 1489 1489 1489 1489 1491 1495 1498 1501 1504 1506 1507 1509 1510 1511 1513 1515 1516 1517 1518 1519 1520 1520 1521 1522 1522 1523 1524 1525 1526 1527 1527 1528 1528 1529 1529 1529 1530 1530 1530 1530 1530 1530 1529 1529 1529 1528 1528 1529 1530 1530 1531 1531 1531 1532 1532 1532
1437 1437 1438 1438 1439 1440 1441 1443 1445 1446 1448 1450 1452 1455 1456 1459 1461 1463 1465 1466 1468 1470 1470 1471 1473 1476 1479 1480 1481 1482 1482 1483 1486 1490 1492 1494 1496 1499 1501 1503 1505 1506 1508 1510 1511 1511 1511 1512 1513 1514 1515 1516 1517 1518 1519 1520 1521 1522 1523 1523 1524 1524 1525 1525 1526 1526 1526 1526 1526 1527 1527 1527 1526 1526 1526 1526 1527 1527 1528 1528 1529 1529 1529 1530 1530
1434 1434 1435 1436 1436 1437 1438 1440 1442 1443 1445 1447 1449 1450 1453 1456 1458 1459 1461 1462 1464 1465 1466 1467 1469 1472 1473 1474 1476 1478 1480 1482 1485 1488 1489 1491 1493 1495 1497 1499 1501 1503 1505 1507 1507 1506 1506 1506 1507 1509 1510 1511 1512 1513 1514 1516 1517 1518 1518 1519 1519 1520 1520 1521 1521 1522 1522 1522 1523 1523 1524 1524 1523 1523 1524 1524 1524 1525 1526 1526 1526 1527 1527 1527 1528
1431 1431 1432 1434 1434 1435 1436 1438 1440 1441 1442 1444 1445 1447 1450 1452 1454 1455 1456 1457 1459 1461 1462 1463 1464 1466 1468 1469 1472 1474 1476 1478 1481 1483 1485 1487 1489 1491 1493 1496 1498 1500 1502 1502 1501 1500 1501 1501 1502 1504 1505 1505 1506 1508 1510 1511 1512 1513 1514 1514 1515 1515 1516 1516 1517 1518 1518 1518 1519 1519 1520 1521 1521 1521 1522 1522 1522 1522 1523 1524 1524 1524 1525 1525 1525
1428 1428 1429 1431 1432 1433 1434 1435 1437 1438 1439 1440 1443 1445 1447 1449 1450 1451 1452 1453 1455 1456 1458 1458 1459 1461 1463 1464 1466 1468 1470 1473 1476 1478 1481 1483 1485 1488 1490 1492 1494 1496 1496 1496 1495 1495 1496 1497 1498 1499 1500 1501 1502 1504 1506 1507 1508 1509 1510 1510 1511 1511 1512 1513 1513 1513 1513 1514 1515 1516 1517 1518 1518 1518 1518 1518 1519 1520 1520 1521 1522 1522 1522 1523 1523
1426 1426 1427 1428 1429 1431 1432 1432 1433 1434 1436 1439 1441 1442 1442 1443 1444 1445 1446 1448 1449 1451 1452 1453 1454 1456 1457 1459 1461 1463 1466 1469 1472 1474 1477 1479 1482 1484 1487 1488 1489 1490 1490 1489 1489 1490 1491 1492 1494 1495 1496 1497 1499 1501 1502 1503 1504 1505 1506 1507 1507 1508 1509 1509 1509 1510 1510 1511 1512 1513 1513 1514 1514 1514 1514 1514 1515 1516 1517 1518 1519 1520 1520 1520 1520
1423 1424 1425 1426 1426 1427 1429 1430 1431 1431 1433 1435 1436 1435 1435 1435 1437 1438 1438 1440 1442 1443 1444 1446 1449 1450 1452 1454 1457 1460 1462 1465 1467 1470 1473 1476 1478 1480 1482 1482 1482 1483 1483 1484 1485 1486 1487 1488 1489 1491 1492 1494 1495 1497 1498 1500 1501 1502 1502 1503 1504 1505 1505 1506 1506 1507 1507 1508 1509 1510 1510 1510 1510 1510 1510 1511 1511 1513 1513 1514 1515 1516 1517 1517 1517
1421 1421 1422 1422 1423 1424 1425 1427 1427 1429 1432 1434 1435 1433 1432 1432 1432 1433 1433 1433 1435 1437 1439 1442 1444 1447 1448 1450 1453 1456 1459 1462 1465 1467 1470 1472 1474 1476 1476 1476 1477 1478 1479 1481 1482 1483 1484 1484 1485 1487 1489 1490 1491 1493 1495 1496 1497 1498 1499 1500 1501 1501 1502 1502 1503 1504 1505 1505 1506 1506 1507 1507 1507 1507 1507 1508 1509 1510 1510 1511 1512 1513 1513 1514 1514
1420 1419 1419 1419 1420 1420 1422 1423 1424 1426 1430 1432 1432 1432 1431 1430 1429 1429 1428 1429 1430 1432 1435 1437 1440 1442 1444 1446 1449 1451 1455 1459 1462 1464 1467 1468 1470 1471 1472 1472 1474 1476 1477 1479 1481 1482 1483 1483 1484 1485 1486 1486 1488 1490 1492 1493 1494 1495 1496 1497 1497 1497 1498 1499 1500 1501 1502 1502 1503 1503 1503 1504 1504 1504 1505 1507 1508 1508 1508 1508 1509 1509 1510 1511 1511
1420 1418 1417 1416 1416 1417 1417 1419 1420 1422 1424 1426 1427 1426 1426 1425 1425 1425 1425 1425 1427 1429 1432 1435 1437 1439 1441 1443 1445 1448 1451 1455 1458 1461 1463 1464 1465 1466 1467 1468 1470 1473 1474 1476 1478 1480 1481 1482 1483 1484 1483 1484 1485 1487 1488 1490 1491 1492 1493 1494 1494 1494 1494 1495 1496 1497 1498 1498 1499 1499 1499 1499 1500 1501 1503 1505 1505 1506 1506 1506 1506 1506 1507 1508 1509
1418 1416 1415 1414 1414 1413 1413 1414 1415 1416 1418 1420 1421 1422 1421 1421 1422 1423 1424 1425 1426 1427 1430 1432 1434 1436 1438 1441 1444 1446 1448 1451 1454 1457 1460 1461 1462 1462 1463 1464 1466 1468 1470 1471 1474 1476 1478 1479 1479 1480 1480 1480 1482 1483 1484 1486 1488 1489 1490 1490 1490 1490 1490 1491 1492 1493 1494 1494 1496 1496 1496 1497 1498 1499 1500 1502 1503 1503 1504 1503 1503 1504 1505 1506 1507
1417 1415 1413 1412 1411 1410 1410 1410 1411 1411 1411 1412 1414 1415 1415 1416 1417 1420 1421 1423 1424 1426 1428 1429 1430 1432 1434 1438 1441 1443 1445 1448 1451 1455 1457 1459 1459 1459 1459 1459 1461 1464 1466 1467 1470 1472 1473 1474 1475 1475 1476 1477 1479 1480 1481 1482 1484 1485 1486 1487 1487 1487 1487 1488 1489 1490 1491 1492 1495 1497 1498 1497 1497 1497 1498 1499 1500 1500 1500 1500 1501 1502 1503 1504 1505
1417 1414 1412 1411 1409 1408 1408 1409 1408 1407 1406 1407 1407 1407 1408 1409 1411 1413 1414 1414 1415 1417 1420 1423 1424 1426 1430 1434 1437 1439 1440 1442 1446 1451 1454 1455 1455 1455 1455 1455 1457 1459 1461 1463 1465 1466 1468 1469 1470 1471 1471 1473 1474 1476 1477 1479 1480 1481 1483 1484 1484 1484 1485 1485 1487 1488 1489 1490 1493 1495 1495 1495 1494 1495 1496 1496 1497 1498 1498 1498 1498 1500 1501 1502 1503
1419 1415 1413 1411 1409 1407 1407 1407 1406 1405 1405 1404 1404 1404 1404 1405 1406 1408 1408 1409 1409 1411 1414 1417 1419 1422 1426 1431 1433 1434 1433 1435 1438 1442 1446 1450 1451 1451 1451 1452 1453 1455 1456 1458 1460 1461 1462 1463 1464 1465 1466 1468 1470 1472 1474 1476 1477 1478 1480 1481 1481 1482 1483 1483 1485 1486 1487 1489 1490 1491 1491 1491 1492 1494 1494 1495 1495 1496 1496 1496 1497 1498 1500 1501 1501
1422 1418 1415 1413 1411 1409 1407 1405 1404 1403 1402 1401 1401 1402 1402 1402 1402 1404 1405 1406 1407 1409 1411 1412 1415 1419 1424 1428 1430 1429 1428 1428 1430 1435 1440 1444 1446 1447 1448 1449 1450 1451 1452 1454 1455 1456 1457 1457 1458 1460 1463 1466 1468 1470 1472 1473 1474 1476 1477 1479 1480 1480 1481 1482 1483 1484 1485 1486 1487 1488 1488 1489 1490 1492 1493 1493 1494 1494 1494 1495 1495 1496 1497 1498 1498
1424 1421 1418 1415 1413 1411 1408 1406 1404 1402 1399 1398 1398 1398 1399 1399 1399 1401 1402 1404 1405 1407 1408 1410 1413 1418 1422 1424 1426 1425 1423 1422 1425 1430 1435 1439 1441 1443 1445 1446 1447 1447 1448 1449 1450 1452 1453 1455 1456 1458 1460 1463 1465 1467 1469 1471 1472 1474 1475 1476 1478 1479 1480 1481 1481 1482 1483 1484 1485 1486 1487 1488 1489 1491 1492 1492 1493 1493 1493 1493 1494 1494 1495 1495 1495
1425 1424 1421 1418 1414 1411 1409 1407 1405 1403 1401 1398 1397 1396 1397 1396 1396 1398 1401 1403 1403 1404 1405 1407 1410 1413 1415 1416 1418 1419 1418 1418 1421 1426 1432 1436 1438 1439 1441 1442 1443 1443 1444 1445 1447 1448 1450 1452 1454 1456 1458 1461 1463 1465 1467 1469 1471 1472 1473 1475 1476 1477 1479 1480 1480 1481 1482 1483 1484 1485 1486 1488 1489 1491 1491 1492 1492 1493 1492 1492 1493 1492 1492 1492 1493
1425 1424 1422 1420 1417 1413 1411 1409 1407 1406 1403 1400 1398 1397 1397 1396 1395 1397 1399 1401 1401 1401 1401 1402 1403 1405 1408 1409 1411 1414 1416 1418 1421 1425 1430 1434 1436 1436 1436 1437 1438 1438 1440 1442 1444 1447 1449 1451 1452 1454 1457 1459 1461 1463 1465 1467 1469 1471 1472 1473 1475 1476 1477 1479 1480 1480 1481 1483 1484 1485 1487 1488 1489 1490 1491 1491 1492 1492 1492 1492 1491 1491 1491 1491 1491
1425 1424 1423 1422 1419 1416 1413 1411 1409 1408 1406 1403 1401 1399 1397 1394 1394 1395 1396 1397 1398 1399 1398 1397 1398 1400 1402 1404 1406 1410 1414 1417 1420 1424 1428 1433 1436 1437 1436 1436 1436 1437 1439 1440 1443 1446 1449 1450 1451 1453 1456 1458 1460 1462 1464 1466 1469 1470 1471 1472 1474 1475 1477 1478 1480 1481 1482 1483 1484 1485 1487 1488 1489 1490 1491 1491 1491 1491 1491 1491 1491 1490 1490 1490 1490
1424 1423 1423 1422 1420 1418 1416 1413 1412 1411 1409 1407 1406 1405 1401 1395 1392 1393 1394 1395 1397 1399 1399 1399 1401 1402 1402 1402 1405 1410 1414 1416 1419 1422 1425 1430 1435 1437 1437 1436 1437 1439 1440 1441 1444 1446 1449 1450 1452 1454 1456 1459 1461 1462 1464 1467 1469 1470 1471 1472 1474 1475 1476 1477 1479 1480 1481 1482 1484 1485 1486 1488 1489 1490 1490 1490 1490 1490 1490 1490 1490 1489 1489 1489 1489
1424 1422 1422 1422 1421 1420 1418 1416 1415 1414 1413 1410 1410 1410 1407 1401 1396 1395 1395 1396 1399 1401 1401 1402 1404 1407 1407 1405 1406 1410 1414 1417 1419 1421 1424 1428 1432 1435 1436 1437 1439 1441 1442 1444 1446 1448 1450 1451 1453 1455 1458 1460 1462 1463 1465 1468 1469 1470 1470 1472 1473 1475 1476 1477 1478 1479 1480 1481 1482 1484 1485 1486 1487 1488 1489 1489 1489 1489 1489 1489 1489 1488 1488 1488 1488
1424 1423 1422 1422 1422 1421 1420 1419 1418 1417 1416 1414 1414 1413 1411 1408 1404 1402 1400 1401 1402 1404 1405 1406 1407 1409 1410 1410 1410 1412 1415 1417 1419 1422 1425 1429 1432 1435 1437 1440 1442 1443 1445 1447 1448 1449 1451 1453 1455 1457 1459 1461 1462 1464 1466 1468 1469 1470 1471 1473 1474 1475 1476 1478 1478 1479 1480 1480 1481 1482 1483 1485 1486 1486 1487 1487 1487 1487 1487 1487 1487 1487 1487 1486 1486
1425 1424 1423 1422 1422 1422 1421 1421 1420 1419 1419 1418 1418 1417 1414 1411 1409 1407 1406 1407 1409 1411 1412 1414 1415 1415 1416 1416 1417 1419 1419 1421 1424 1427 1430 1433 1436 1437 1439 1442 1444 1446 1447 1448 1449 1451 1453 1456 1458 1459 1460 1461 1464 1465 1466 1467 1469 1470 1472 1473 1474 1475 1476 1478 1478 1478 1479 1480 1481 1481 1482 1483 1484 1484 1485 1485 1485 1485 1485 1485 1485 1485 1485 1485 1484